Regional Weather Roundup
Issued by NWS

Home | Current Version | Previous Version | Text Only | Print | Product List | Glossary On
Versions: 1 2 3 4 5 6 7 8 9 10 11 12 13 14 15 16 17 18 19 20 21 22 23 24 25 26 27
000
ASUS44 KBMX 251110
RWRAL

ALABAMA REGIONAL WEATHER ROUNDUP
NATIONAL WEATHER SERVICE BIRMINGHAM AL
600 AM CDT THU AUG 25 2016

NOTE: "FAIR" INDICATES FEW OR NO CLOUDS BELOW 12,000 FEET
WITH NO SIGNIFICANT WEATHER AND/OR OBSTRUCTIONS TO VISIBILITY.

THE REMARK "TC" DENOTES TEMPERATURE IN DEGREES CELSIUS.

ALZ001>011-014-016>018-020-251200-
NORTH ALABAMA

CITY           SKY/WX    TMP DP  RH WIND       PRES   REMARKS
MUSCLE SHOALS  CLEAR     73  71  93 CALM      30.16R
HUNTSVILLE     PTCLDY    75  72  90 E5        30.16R
DECATUR        CLEAR     74  72  93 E5        30.16R
HALEYVILLE     FAIR      72  71  97 CALM      30.19R FOG
GADSDEN        MOCLDY    74  72  93 NE3       30.18R
$$

ALZ012-013-022-023-030>036-040>044-251200-
WEST CENTRAL ALABAMA

CITY           SKY/WX    TMP DP  RH WIND       PRES   REMARKS
TUSCALOOSA     CLEAR     75  75 100 CALM      30.14R
$$

ALZ015-024>027-033>036-040>044-251200-
CENTRAL ALABAMA

CITY           SKY/WX    TMP DP  RH WIND       PRES   REMARKS
BIRMINGHAM     MOCLDY    77  73  87 NE3       30.19R
MONTGOMERY     CLOUDY    78  72  81 E6        30.15R
SHELBY CO ARPT MOCLDY    77  73  87 CALM      30.17R
MAXWELL AFB    MOCLDY    78  75  89 E3        30.15R
GREENVILLE     CLOUDY    76  72  87 CALM      30.15R
$$

ALZ019-021-028-029-037-038-045>048-251200-
EAST CENTRAL ALABAMA

CITY           SKY/WX    TMP DP  RH WIND       PRES   REMARKS
ANNISTON       CLOUDY    75  70  84 NE6       30.18R
ALEXANDER CITY PTCLDY    77  77 100 CALM      30.18R
AUBURN         NOT AVBL
$$

ALZ051>064-251200-
SOUTHWEST ALABAMA

CITY           SKY/WX    TMP DP  RH WIND       PRES   REMARKS
MOBILE         MOCLDY    76  75  97 NE3       30.11R FOG
BROOKLEY FIELD PTCLDY    79  78  97 N5        30.11R
EVERGREEN      MOCLDY    73  71  93 CALM      30.14R
$$

ALZ049-050-065>069-251200-
SOUTHEAST ALABAMA

CITY           SKY/WX    TMP DP  RH WIND       PRES   REMARKS
DOTHAN         CLOUDY    74  73  97 E6        30.17R
OZARK          CLOUDY    74  72  93 NE5       30.13R
TROY           CLEAR     73  72  96 NE3       30.16R
EUFAULA        CLOUDY    74  71  91 CALM      30.15R
$$




USA.gov is the U.S. government's official web portal to all federal, state and local government web resources and services.